When you browse on this site, cookies collect data to enhance your experience and personalize the content and advertising you see.
Visit our Privacy Policy to learn more. By continuing to use the site, you agree to this use of cookies and data.
  • In Hungary
  • List of Countries
  • For 7 days
  • Water Temperature
  • Satellite Maps
  • Weather Map
  • News
  • Weather Widgets
  • user-avatar
    Login

    Hourly Weather Asuan

    Today, 20 April, Saturday

    Time Temperature Precipitation Wind Pressure Humidity
    00:00 +25°C° 0 mm 2 mps 744 mmHg 24%
    01:00 +25°C° 0 mm 2 mps 744 mmHg 25%
    02:00 +24°C° 0 mm 2 mps 743 mmHg 26%
    03:00 +24°C° 0 mm 3 mps 743 mmHg 27%
    04:00 +22°C° 0 mm 3 mps 743 mmHg 28%
    05:00 +22°C° 0 mm 3 mps 743 mmHg 29%
    06:00 +24°C° 0 mm 3 mps 744 mmHg 27%
    07:00 +26°C° 0 mm 4 mps 744 mmHg 25%
    08:00 +27°C° 0 mm 4 mps 744 mmHg 23%
    09:00 +28°C° 0 mm 4 mps 744 mmHg 22%
    10:00 +29°C° 0 mm 4 mps 744 mmHg 20%
    11:00 +30°C° 0 mm 4 mps 744 mmHg 19%
    12:00 +32°C° 0 mm 4 mps 744 mmHg 18%
    13:00 +33°C° 0 mm 4 mps 743 mmHg 17%
    14:00 +34°C° 0 mm 4 mps 743 mmHg 15%
    15:00 +34°C° 0 mm 4 mps 742 mmHg 15%
    16:00 +34°C° 0 mm 5 mps 742 mmHg 15%
    17:00 +33°C° 0 mm 5 mps 742 mmHg 15%
    18:00 +32°C° 0 mm 6 mps 742 mmHg 16%
    19:00 +30°C° 0 mm 6 mps 743 mmHg 18%
    20:00 +28°C° 0 mm 6 mps 743 mmHg 19%
    21:00 +27°C° 0 mm 7 mps 744 mmHg 18%
    22:00 +26°C° 0 mm 7 mps 744 mmHg 18%
    23:00 +24°C° 0 mm 8 mps 744 mmHg 17%

    Tomorrow, 21 April, Sunday

    Time Temperature Precipitation Wind Pressure Humidity
    00:00 +23°C° 0 mm 7 mps 744 mmHg 19%
    01:00 +23°C° 0 mm 7 mps 744 mmHg 20%
    02:00 +22°C° 0 mm 7 mps 744 mmHg 22%
    03:00 +21°C° 0 mm 7 mps 744 mmHg 24%
    04:00 +21°C° 0 mm 6 mps 744 mmHg 26%
    05:00 +20°C° 0 mm 6 mps 744 mmHg 28%
    06:00 +21°C° 0 mm 7 mps 744 mmHg 27%
    07:00 +21°C° 0 mm 8 mps 745 mmHg 26%
    08:00 +22°C° 0 mm 9 mps 745 mmHg 25%
    09:00 +24°C° 0 mm 8 mps 745 mmHg 22%
    10:00 +26°C° 0 mm 8 mps 745 mmHg 19%
    11:00 +27°C° 0 mm 7 mps 745 mmHg 15%
    12:00 +28°C° 0 mm 7 mps 744 mmHg 12%
    13:00 +29°C° 0 mm 7 mps 743 mmHg 10%
    14:00 +30°C° 0 mm 7 mps 743 mmHg 7%
    15:00 +30°C° 0 mm 7 mps 742 mmHg 7%
    16:00 +30°C° 0 mm 7 mps 742 mmHg 7%
    17:00 +29°C° 0 mm 7 mps 742 mmHg 7%
    18:00 +28°C° 0 mm 7 mps 742 mmHg 9%
    19:00 +27°C° 0 mm 7 mps 743 mmHg 11%
    20:00 +24°C° 0 mm 6 mps 743 mmHg 14%
    21:00 +24°C° 0 mm 7 mps 744 mmHg 18%
    22:00 +23°C° 0 mm 8 mps 744 mmHg 22%
    23:00 +22°C° 0 mm 8 mps 744 mmHg 26%

    Day after tomorrow, 22 April, Monday

    Time Temperature Precipitation Wind Pressure Humidity
    00:00 +22°C° 0 mm 8 mps 744 mmHg 27%
    01:00 +21°C° 0 mm 8 mps 744 mmHg 27%
    02:00 +20°C° 0 mm 8 mps 743 mmHg 28%
    03:00 +20°C° 0 mm 7 mps 744 mmHg 28%
    04:00 +18°C° 0 mm 7 mps 744 mmHg 28%
    05:00 +17°C° 0 mm 6 mps 744 mmHg 28%
    06:00 +18°C° 0 mm 7 mps 744 mmHg 26%
    07:00 +20°C° 0 mm 7 mps 745 mmHg 24%
    08:00 +22°C° 0 mm 7 mps 745 mmHg 22%
    09:00 +23°C° 0 mm 7 mps 745 mmHg 20%
    10:00 +26°C° 0 mm 6 mps 745 mmHg 18%
    11:00 +28°C° 0 mm 6 mps 744 mmHg 15%
    12:00 +29°C° 0 mm 6 mps 744 mmHg 13%
    13:00 +30°C° 0 mm 6 mps 743 mmHg 11%
    14:00 +32°C° 0 mm 6 mps 742 mmHg 10%
    15:00 +32°C° 0 mm 6 mps 742 mmHg 9%
    16:00 +32°C° 0 mm 6 mps 742 mmHg 8%
    17:00 +32°C° 0 mm 6 mps 742 mmHg 7%
    18:00 +29°C° 0 mm 6 mps 742 mmHg 8%
    19:00 +28°C° 0 mm 5 mps 743 mmHg 9%
    20:00 +27°C° 0 mm 5 mps 743 mmHg 9%
    21:00 +26°C° 0 mm 5 mps 743 mmHg 10%
    22:00 +24°C° 0 mm 6 mps 744 mmHg 11%
    23:00 +23°C° 0 mm 6 mps 744 mmHg 12%

    23 April, Tuesday

    Time Temperature Precipitation Wind Pressure Humidity
    00:00 +23°C° 0 mm 6 mps 744 mmHg 14%
    01:00 +22°C° 0 mm 6 mps 743 mmHg 16%
    02:00 +21°C° 0 mm 5 mps 743 mmHg 17%
    03:00 +21°C° 0 mm 5 mps 743 mmHg 19%
    04:00 +21°C° 0 mm 5 mps 743 mmHg 20%
    05:00 +20°C° 0 mm 5 mps 743 mmHg 22%
    06:00 +22°C° 0 mm 6 mps 744 mmHg 20%
    07:00 +23°C° 0 mm 6 mps 744 mmHg 19%
    08:00 +24°C° 0 mm 7 mps 745 mmHg 17%
    09:00 +27°C° 0 mm 7 mps 744 mmHg 14%
    10:00 +29°C° 0 mm 7 mps 744 mmHg 11%
    11:00 +32°C° 0 mm 7 mps 744 mmHg 9%
    12:00 +33°C° 0 mm 7 mps 743 mmHg 8%
    13:00 +35°C° 0 mm 7 mps 743 mmHg 7%
    14:00 +36°C° 0 mm 6 mps 742 mmHg 6%
    15:00 +36°C° 0 mm 6 mps 742 mmHg 6%
    16:00 +36°C° 0 mm 7 mps 742 mmHg 6%
    17:00 +36°C° 0 mm 7 mps 742 mmHg 6%
    18:00 +34°C° 0 mm 6 mps 742 mmHg 7%
    19:00 +33°C° 0 mm 6 mps 742 mmHg 8%
    20:00 +30°C° 0 mm 6 mps 743 mmHg 9%
    21:00 +29°C° 0 mm 6 mps 743 mmHg 12%
    22:00 +28°C° 0 mm 5 mps 743 mmHg 16%
    23:00 +27°C° 0 mm 5 mps 743 mmHg 19%

    24 April, Wednesday

    Time Temperature Precipitation Wind Pressure Humidity
    00:00 +26°C° 0 mm 5 mps 743 mmHg 19%
    01:00 +25°C° 0 mm 4 mps 743 mmHg 19%
    02:00 +23°C° 0 mm 4 mps 742 mmHg 19%
    03:00 +22°C° 0 mm 4 mps 742 mmHg 18%
    04:00 +22°C° 0 mm 4 mps 742 mmHg 17%
    05:00 +21°C° 0 mm 5 mps 743 mmHg 16%
    06:00 +23°C° 0 mm 5 mps 743 mmHg 14%
    07:00 +26°C° 0 mm 6 mps 743 mmHg 12%
    08:00 +27°C° 0 mm 7 mps 744 mmHg 10%
    09:00 +30°C° 0 mm 7 mps 744 mmHg 9%
    10:00 +33°C° 0 mm 7 mps 743 mmHg 8%
    11:00 +36°C° 0 mm 7 mps 743 mmHg 7%
    12:00 +38°C° 0 mm 6 mps 742 mmHg 7%
    13:00 +39°C° 0 mm 6 mps 741 mmHg 7%
    14:00 +41°C° 0 mm 5 mps 741 mmHg 7%
    15:00 +41°C° 0 mm 5 mps 741 mmHg 7%
    16:00 +41°C° 0 mm 5 mps 741 mmHg 7%
    17:00 +41°C° 0 mm 5 mps 741 mmHg 7%
    18:00 +39°C° 0 mm 6 mps 741 mmHg 9%
    19:00 +36°C° 0 mm 6 mps 741 mmHg 10%
    20:00 +34°C° 0 mm 6 mps 742 mmHg 12%
    21:00 +33°C° 0 mm 6 mps 742 mmHg 13%
    22:00 +32°C° 0 mm 5 mps 742 mmHg 14%
    23:00 +30°C° 0 mm 5 mps 742 mmHg 15%

    25 April, Thursday

    Time Temperature Precipitation Wind Pressure Humidity
    00:00 +29°C° 0 mm 5 mps 742 mmHg 15%
    01:00 +28°C° 0 mm 4 mps 741 mmHg 14%
    02:00 +27°C° 0 mm 4 mps 741 mmHg 14%
    03:00 +27°C° 0 mm 5 mps 741 mmHg 14%
    04:00 +27°C° 0 mm 5 mps 741 mmHg 14%
    05:00 +26°C° 0 mm 5 mps 742 mmHg 14%
    06:00 +28°C° 0 mm 6 mps 742 mmHg 12%
    07:00 +30°C° 0 mm 6 mps 742 mmHg 11%
    08:00 +32°C° 0 mm 7 mps 743 mmHg 9%
    09:00 +34°C° 0 mm 7 mps 742 mmHg 8%
    10:00 +36°C° 0 mm 7 mps 742 mmHg 7%
    11:00 +39°C° 0 mm 6 mps 742 mmHg 6%
    12:00 +40°C° 0 mm 6 mps 741 mmHg 6%
    13:00 +41°C° 0 mm 6 mps 740 mmHg 6%
    14:00 +42°C° 0 mm 6 mps 739 mmHg 6%
    15:00 +42°C° 0 mm 6 mps 739 mmHg 6%
    16:00 +42°C° 0 mm 6 mps 739 mmHg 6%
    17:00 +41°C° 0 mm 6 mps 739 mmHg 6%
    18:00 +40°C° 0 mm 6 mps 739 mmHg 7%
    19:00 +38°C° 0 mm 6 mps 740 mmHg 7%
    20:00 +35°C° 0 mm 6 mps 740 mmHg 8%
    21:00 +34°C° 0 mm 6 mps 740 mmHg 10%
    22:00 +33°C° 0 mm 5 mps 740 mmHg 12%
    23:00 +30°C° 0 mm 4 mps 740 mmHg 14%
    Show more